{"data":{"norad_id":53561,"epoch":"2026-09-20T16:34:42.979872Z","epoch_age_seconds":61984,"freshness":"FRESH","line1":"1 53561U 22101AL  26263.69077523  .00000509  00000+0  26221-4 0  9994","line2":"2 53561  53.1585 256.4777 0001295  86.3952 273.7199 15.34392032225916","mean_motion":15.34392032,"eccentricity":0.0001295,"inclination_deg":53.1585,"raan_deg":256.4777,"arg_perigee_deg":86.3952,"mean_anomaly_deg":273.7199,"bstar":2.6221e-5,"rev_number":22591,"period_min":93.848245426759,"perigee_km":461.84103100676,"apogee_km":463.61281476278,"semimajor_km":6840.8639228848,"source":"CELESTRAK","updated_at":"2026-09-21T09:00:32.927793Z"}}